CAPE
0 0 0 0 0 0 0 0 32 0 0 0 0 0 0 0 0 0 0 0 0 0 0 0 0 0 0 0 0 0 0 0 0 0 0 0 0 0 0 0 0 0 0
0 0 0 0 0 0 0 0 0 0 0 0 0 0 0 0 0 0 0 0 0 0 0 0 0 0 0 0 0 0 0 0 0 0 0 0 0 0 0 0 0 0 0
0 0 0 0 0 0 0 0 0 0 0 0 0 0 0 0 0 0 0 0 0 0 0 0 0 0 0 0 0 0 0 0 0 0 0 0 0 0 0 0 0 0 0
0 0 0 0 0 0 0 0 0 0 0 0 0 0 0 0 0 0 0 0 0 0 0 0 0 0 0 0 0 0 0 0 0 0 0 0 0 0 0 0 0 0 0
0 0 0 0 0 0 0 0 0 0 0 0 0 0 0 0 0 0 0 0 0 0 0 0 0 0 0 0 0 0 0 0 0 0 0 0 0 0 0 0 0 0 0
0 0 0 0 0 0 0 0 0 0 0 0 0 0 0 0 0 0 0 0 0 0 0 0 0 0 0 0 0 0 0 0 0 0 0 0 0 0 0 0 0 0 0
0 0 0 0 0 0 0 0 0 0 0 0 0 0 0 0 0 0 0 0 0 0 0 0 0 0 0 0 0 0 0 0 0 0 0 0 0 0 0 0 0 0 0
0 0 0 0 0 0 0 0 0 0 0 0 0 0 0 0 0 0 0 0 0 0 0 0 0 0 0 0 0 0 0 0 0 0 0 0 0 0 0 0 0 0 0
0 0 0 0 0 0 0 0 0 0 0 0 0 0 0 0 0 0 0 0 0 0 0 0 0 0 0 0 0 0 0 0 0 0 0 0 0 0 0 0 0 0 0
0 0 0 0 0 0 0 0 0 0 0 0 0 0 0 0 0 0 0 0 0 0 0 0 0 0 0 0 0 0 0 0 0 0 0 0 0 0 0 0 0 0 0
0 0 0 0 0 0 0 0 0 0 0 0 0 0 0 0 0 0 0 0 0 0 0 0 0 0 0 0 0 0 0 0 0 0 0 0 0 0 0 0 0 0 0
0 0 0 0 0 0 0 0 0 0 0 0 0 0 0 0 0 0 0 0 0 0 0 0 0 0 0 0 0 0 0 0 0 0 0 0 0 0 0 0 0 0 0
0 0 0 0 0 0 0 0 0 0 0 0 0 0 0 0 0 0 0 0 0 0 0 0 0 0 0 0 0 0 0 0 0 0 0 0 0 0 0 0 0 0 0
0 0 0 0 0 0 0 0 0 0 0 0 0 0 0 0 0 0 0 0 0 0 0 0 0 0 0 0 0 0 0 0 0 0 0 0 0 0 0 0 2 0 0
0 0 0 0 0 0 0 0 0 0 0 0 0 0 0 0 0 0 0 0 0 0 0 0 0 0 0 0 0 0 0 0 0 0 0 0 0 0 3 4 0 1 0
0 0 0 0 0 0 0 0 0 0 0 0 0 0 0 0 0 0 0 0 0 0 0 0 0 0 0 0 0 0 0 0 0 0 0 0 0 0 7 9 16 13 17
0 0 0 0 0 0 0 0 0 0 0 0 0 0 0 0 0 0 0 0 0 0 0 0 0 0 0 0 0 0 0 0 0 0 0 0 0 0 0 0 18 9 6
0 0 0 0 0 0 0 0 0 0 0 0 0 0 0 0 0 0 0 0 0 0 0 0 0 0 0 0 0 0 0 0 0 0 0 0 0 0 9 2 0 4 0
0 0 0 0 0 0 0 0 0 0 0 0 0 0 0 0 0 0 0 0 0 0 0 0 0 0 0 0 0 0 0 0 0 0 0 0 0 1 16 13 2 0 0
0 0 0 0 0 0 0 0 0 0 0 0 0 0 0 0 0 0 0 0 0 0 0 0 0 0 0 0 0 0 0 0 0 0 0 0 0 16 43 0 0 0 0
0 0 0 0 0 0 0 0 0 0 0 0 0 0 0 0 0 0 0 0 0 0 0 0 0 0 0 0 0 0 1 0 0 0 0 0 15 10 3 1 0 0 6
0 0 0 0 0 0 0 0 0 0 0 0 0 0 0 0 0 0 0 0 0 0 0 0 0 0 0 0 0 1 10 15 10 5 0 8 4 0 0 0 2 4 0
0 0 0 0 0 0 0 0 0 0 0 0 0 0 0 0 0 0 0 0 0 0 0 0 0 0 0 0 0 0 11 4 7 3 20 0 0 0 0 0 0 0 0
0 0 0 0 0 0 0 0 0 0 0 0 0 0 0 0 0 0 0 0 0 0 0 0 0 0 0 0 0 0 0 1 1 4 0 0 0 0 0 0 0 0 0
0 0 0 0 0 0 0 0 0 0 0 0 0 0 0 0 0 0 0 0 0 0 0 0 0 0 0 0 3 4 5 6 3 0 0 0 0 0 0 0 0 0 0
0 0 0 0 0 0 0 0 0 0 0 0 0 0 0 0 0 0 0 0 0 0 0 0 0 0 0 0 2 9 6 5 2 0 0 0 0 0 0 0 0 0 0
CIN
-0 -0 -0 -0 -0 -0 -0 -0 -389 -0 -0 -0 -0 -0 -0 -0 -0 -0 -0 -0 -0 -0 -0 -0 -0 -0 -0 -0 -0 -0 -0 -0 -0 -0 -0 -0 -0 -0 -0 -0 -0 -0 -0
-0 -0 -0 -0 -0 -0 -0 -0 -0 -0 -0 -0 -0 -0 -0 -0 -0 -0 -0 -0 -0 -0 -0 -0 -0 -0 -0 -0 -0 -0 -0 -0 -0 -0 -0 -0 -0 -0 -0 -0 -0 -0 -0
-0 -0 -0 -0 -0 -0 -0 -0 -0 -0 -0 -0 -0 -0 -0 -0 -0 -0 -0 -0 -0 -0 -0 -0 -0 -0 -0 -0 -0 -0 -0 -0 -0 -0 -0 -0 -0 -0 -0 -0 -0 -0 -0
-0 -0 -0 -0 -0 -0 -0 -0 -0 -0 -0 -0 -0 -0 -0 -0 -0 -0 -0 -0 -0 -0 -0 -0 -0 -0 -0 -0 -0 -0 -0 -0 -0 -0 -0 -0 -0 -0 -0 -0 -0 -0 -0
-0 -0 -0 -0 -0 -0 -0 -0 -0 -0 -0 -0 -0 -0 -0 -0 -0 -0 -0 -0 -0 -0 -0 -0 -0 -0 -0 -0 -0 -0 -0 -0 -0 -0 -0 -0 -0 -0 -0 -0 -0 -0 -0
-0 -0 -0 -0 -0 -0 -0 -0 -0 -0 -0 -0 -0 -0 -0 -0 -0 -0 -0 -0 -0 -0 -0 -0 -0 -0 -0 -0 -0 -0 -0 -0 -0 -0 -0 -0 -0 -0 -0 -0 -0 -0 -0
-0 -0 -0 -0 -0 -0 -0 -0 -0 -0 -0 -0 -0 -0 -0 -0 -0 -0 -0 -0 -0 -0 -0 -0 -0 -0 -0 -0 -0 -0 -0 -0 -0 -0 -0 -0 -0 -0 -0 -0 -0 -0 -0
-0 -0 -0 -0 -0 -0 -0 -0 -0 -0 -0 -0 -0 -0 -0 -0 -0 -0 -0 -0 -0 -0 -0 -0 -0 -0 -0 -0 -0 -0 -0 -0 -0 -0 -0 -0 -0 -0 -0 -0 -0 -0 -0
-0 -0 -0 -0 -0 -0 -0 -0 -0 -0 -0 -0 -0 -0 -0 -0 -0 -0 -0 -0 -0 -0 -0 -0 -0 -0 -0 -0 -0 -0 -0 -0 -0 -0 -0 -0 -0 -0 -0 -0 -0 -0 -0
-0 -0 -0 -0 -0 -0 -0 -0 -0 -0 -0 -0 -0 -0 -0 -0 -0 -0 -0 -0 -0 -0 -0 -0 -0 -0 -0 -0 -0 -0 -0 -0 -0 -0 -0 -0 -0 -0 -0 -0 -0 -0 -0
-0 -0 -0 -0 -0 -0 -0 -0 -0 -0 -0 -0 -0 -0 -0 -0 -0 -0 -0 -0 -0 -0 -0 -0 -0 -0 -0 -0 -0 -0 -0 -0 -0 -0 -0 -0 -0 -0 -0 -0 -0 -0 -0
-0 -0 -0 -0 -0 -0 -0 -0 -0 -0 -0 -0 -0 -0 -0 -0 -0 -0 -0 -0 -0 -0 -0 -0 -0 -0 -0 -0 -0 -0 -0 -0 -0 -0 -0 -0 -0 -0 -0 -0 -0 -0 -0
-0 -0 -0 -0 -0 -0 -0 -0 -0 -0 -0 -0 -0 -0 -0 -0 -0 -0 -0 -0 -0 -0 -0 -0 -0 -0 -0 -0 -0 -0 -0 -0 -0 -0 -0 -0 -0 -0 -0 -0 -0 -2 -1
-0 -0 -0 -0 -0 -0 -0 -0 -0 -0 -0 -0 -0 -0 -0 -0 -0 -0 -0 -0 -0 -0 -0 -0 -0 -0 -0 -0 -0 -0 -0 -0 -0 -0 -0 -0 -0 -0 -0 -0 -3 -0 -0
-0 -0 -0 -0 -0 -0 -0 -0 -0 -0 -0 -0 -0 -0 -0 -0 -0 -0 -0 -0 -0 -0 -0 -0 -0 -0 -0 -0 -0 -0 -0 -0 -0 -0 -0 -0 -0 -0 -2 -2 -6 -3 -1
-0 -0 -0 -0 -0 -0 -0 -0 -0 -0 -0 -0 -0 -0 -0 -0 -0 -0 -0 -0 -0 -0 -0 -0 -0 -0 -0 -0 -0 -0 -0 -0 -0 -0 -0 -0 -0 -0 -1 -1 -2 -3 -3
-0 -0 -0 -0 -0 -0 -0 -0 -0 -0 -0 -0 -0 -0 -0 -0 -0 -0 -0 -0 -0 -0 -0 -0 -0 -0 -0 -0 -0 -0 -0 -0 -0 -0 -0 -0 -0 -3 -0 -4 -2 -1 -2
-0 -0 -0 -0 -0 -0 -0 -0 -0 -0 -0 -0 -0 -0 -0 -0 -0 -0 -0 -0 -0 -0 -0 -0 -0 -0 -0 -0 -0 -0 -0 -0 -0 -0 -0 -0 -0 -0 -3 -10 -3 -10 -0
-0 -0 -0 -0 -0 -0 -0 -0 -0 -0 -0 -0 -0 -0 -0 -0 -0 -0 -0 -0 -0 -0 -0 -0 -0 -0 -0 -0 -0 -0 -0 -0 -0 -0 -0 -0 -0 -1 -4 -3 -2 -0 -0
-0 -0 -0 -0 -0 -0 -0 -0 -0 -0 -0 -0 -0 -0 -0 -0 -0 -0 -0 -0 -0 -0 -0 -0 -0 -0 -0 -0 -0 -0 -0 -0 -0 -0 -0 -0 -0 -2 -0 -0 -0 -0 -0
-0 -0 -0 -0 -0 -0 -0 -0 -0 -0 -0 -0 -0 -0 -0 -0 -0 -0 -0 -0 -0 -0 -0 -0 -0 -0 -0 -0 -0 -0 -3 -1 -0 -0 -0 -0 -1 -0 -4 -3 -0 -0 -5
-0 -0 -0 -0 -0 -0 -0 -0 -0 -0 -0 -0 -0 -0 -0 -0 -0 -0 -0 -0 -0 -0 -0 -0 -0 -0 -0 -0 -0 -2 -2 -2 -4 -2 -0 -3 -2 -3 -0 -0 -2 -3 -3
-0 -0 -0 -0 -0 -0 -0 -0 -0 -0 -0 -0 -0 -0 -0 -0 -0 -0 -0 -0 -0 -0 -0 -0 -0 -0 -0 -0 -0 -0 -1 -2 -4 -10 -1 -0 -0 -0 -0 -0 -0 -0 -0
-0 -0 -0 -0 -0 -0 -0 -0 -0 -0 -0 -0 -0 -0 -0 -0 -0 -0 -0 -0 -0 -0 -0 -0 -0 -0 -0 -0 -0 -4 -0 -2 -8 -1 -0 -0 -0 -0 -0 -0 -0 -0 -0
-0 -0 -0 -0 -0 -0 -0 -0 -0 -0 -0 -0 -0 -0 -0 -0 -0 -0 -0 -0 -0 -0 -0 -0 -0 -0 -0 -0 -3 -3 -5 -4 -5 -5 -0 -0 -0 -0 -0 -0 -0 -0 -0
-0 -0 -0 -0 -0 -0 -0 -0 -0 -0 -0 -0 -0 -0 -0 -0 -0 -0 -0 -0 -0 -0 -0 -0 -0 -0 -0 -1 -1 -2 -2 -2 -2 -0 -0 -0 -0 -0 -0 -0 -0 -0 -0
Wind_Speed
20 18 15 13 14 13 9 5 5 6 3 1 2 5 6 8 10 12 13 14 17 19 21 23 25 27 28 28 29 29 31 31 36 33 35 28 29 26 36 34 37 35 37
19 17 15 12 12 9 4 4 6 4 3 0 2 4 6 8 10 12 14 16 18 20 22 24 26 27 28 30 30 31 31 30 35 36 33 35 32 30 43 34 38 36 39
19 15 13 11 7 4 4 6 6 4 2 2 3 5 7 8 10 12 14 17 19 21 23 25 26 27 28 29 30 31 32 34 32 35 34 37 38 48 30 41 35 46 39
20 16 11 9 5 4 5 6 6 6 4 3 3 4 4 6 8 11 13 17 19 22 23 25 26 28 28 29 30 31 32 33 36 33 34 32 36 43 51 38 46 38 45
19 15 10 7 6 6 6 6 6 5 4 3 4 4 5 7 9 11 14 17 20 22 24 25 26 28 29 29 31 32 34 34 35 36 38 39 38 37 43 55 48 46 45
20 15 11 7 7 6 6 6 6 4 4 4 4 4 4 6 8 11 14 17 20 22 24 25 27 28 30 31 32 33 35 36 36 37 39 40 41 44 45 50 53 54 50
18 14 12 10 9 9 7 6 6 5 5 4 3 3 4 7 9 11 14 17 19 21 24 26 28 29 31 32 34 36 37 37 38 39 40 38 39 39 42 48 56 57 54
19 16 14 11 11 10 8 7 6 5 4 3 2 3 5 8 11 13 15 17 19 21 23 26 28 31 33 35 36 37 38 38 39 39 39 39 40 40 42 46 54 63 60
19 17 14 12 12 11 9 8 6 4 3 2 2 4 7 10 12 14 16 18 20 22 25 28 31 33 34 36 38 39 40 39 39 39 38 40 41 43 45 45 46 52 65
18 15 14 13 12 11 9 7 5 4 2 1 3 6 8 11 13 15 17 19 21 24 27 30 32 34 36 38 39 40 40 39 39 39 40 43 44 46 47 46 46 46 51
16 15 13 12 13 11 9 7 5 3 1 2 4 7 9 12 14 16 19 21 23 26 29 32 34 37 39 40 40 40 39 39 41 41 42 45 46 48 48 46 46 47 47
14 13 12 13 13 12 9 7 5 3 2 3 5 8 10 13 15 18 20 22 25 28 31 33 36 38 39 40 41 40 40 41 43 44 44 46 47 50 48 46 48 48 48
11 11 11 13 14 12 9 6 4 3 2 4 7 10 12 14 17 20 22 24 27 30 32 35 38 39 40 40 40 39 41 43 44 44 44 47 50 52 50 49 50 48 46
12 10 10 12 12 11 8 6 4 3 3 6 8 11 14 16 19 21 23 26 29 32 34 36 38 39 40 40 39 41 43 44 44 43 43 46 50 51 51 50 47 48 49
11 11 12 13 12 10 7 5 3 3 4 7 10 13 16 18 20 22 25 28 30 33 35 37 39 40 40 39 43 44 44 46 46 45 44 45 46 48 48 48 49 48 47
12 9 10 11 11 9 6 4 3 4 5 9 12 14 16 19 21 24 27 29 32 34 36 38 39 40 40 43 44 46 47 47 48 50 47 46 48 46 47 47 47 45 47
8 8 8 9 7 6 4 3 2 5 8 10 12 15 18 20 23 26 29 31 32 35 37 38 39 41 42 44 46 48 47 48 49 50 50 49 46 46 45 44 44 44 43
3 4 4 4 4 2 1 1 3 6 8 11 13 16 19 22 25 27 28 31 33 36 37 38 40 41 42 45 47 49 46 47 48 48 47 46 45 44 45 45 44 43 39
1 3 5 5 4 2 2 3 5 7 9 12 15 17 20 22 24 27 30 32 34 36 37 38 41 43 43 45 47 48 46 47 47 45 43 43 45 44 44 45 41 40 40
4 6 6 5 4 3 3 4 6 8 11 13 15 18 20 23 26 28 31 32 33 35 37 40 41 42 44 44 46 46 46 48 47 44 42 42 43 43 42 42 42 39 22
7 7 6 5 5 5 5 6 8 10 12 14 17 19 22 25 26 28 30 33 35 37 41 42 42 42 41 42 43 45 45 46 46 45 44 41 42 40 46 42 36 21 25
7 7 7 7 6 6 6 8 10 11 13 16 19 21 23 25 27 30 32 34 37 41 43 44 44 42 41 41 44 44 45 43 43 42 41 39 41 43 42 37 19 25 36
8 8 7 7 8 8 8 9 11 13 15 18 20 22 24 25 28 31 33 37 39 42 44 44 46 47 45 43 43 44 43 43 42 39 38 38 38 36 32 19 16 16 10
8 8 8 8 9 9 10 11 12 14 16 19 21 22 24 26 29 31 34 38 41 43 43 45 47 47 46 45 43 43 42 41 39 38 36 37 34 22 17 14 10 11 13
9 8 8 8 9 10 11 12 14 15 17 19 21 23 25 27 31 33 35 38 38 40 43 44 44 47 47 44 45 43 42 41 41 39 37 34 30 10 22 10 11 13 14
9 8 9 9 10 10 12 13 15 16 18 20 22 24 27 30 32 35 38 36 37 39 39 41 42 42 41 43 42 42 41 41 38 36 33 13 11 16 10 14 17 16 18
Wind_Direction
268 276 282 288 287 289 278 237 185 233 233 320 5 3 10 24 25 26 26 18 11 5 1 358 356 354 353 352 350 347 342 342 338 338 335 339 337 338 331 335 334 333 333
264 272 276 286 289 286 269 202 169 192 236 216 13 28 42 31 37 34 21 17 10 5 2 360 356 354 353 351 349 347 345 345 342 337 337 330 332 330 327 332 331 330 332
255 263 269 276 283 258 195 160 151 149 169 107 72 42 41 39 36 32 23 14 10 5 2 360 358 356 355 351 350 348 347 343 345 345 343 330 325 323 330 327 329 325 327
256 260 260 263 250 217 190 162 150 136 134 120 99 94 63 58 31 27 22 12 6 3 1 0 359 356 355 352 351 349 347 345 341 344 342 339 332 325 320 327 324 327 324
241 239 237 241 232 206 184 164 152 139 134 127 112 90 64 31 34 23 11 7 2 1 360 359 357 355 354 352 350 348 346 345 342 339 336 333 331 330 324 319 323 323 323
241 237 240 223 214 210 191 174 157 148 138 130 114 91 58 37 21 11 2 359 357 357 356 356 355 354 351 349 347 346 344 342 340 338 335 333 330 327 325 321 321 320 323
222 209 203 204 205 201 199 190 167 150 142 132 104 60 27 16 9 2 357 354 353 352 351 352 351 350 349 347 345 343 342 340 338 336 335 334 332 330 327 324 320 319 321
219 206 204 197 191 192 191 191 170 156 145 127 68 30 17 3 357 354 353 353 351 351 350 350 348 347 345 344 343 341 340 339 337 336 335 333 332 331 328 325 322 318 318
208 198 203 200 189 189 193 189 173 152 139 116 40 8 358 354 352 353 354 350 349 348 347 346 344 343 343 342 340 339 338 338 338 336 335 334 332 330 327 325 323 320 317
214 202 194 196 197 197 201 199 188 169 154 34 355 352 351 351 353 352 349 348 347 344 343 342 342 341 340 339 339 338 338 338 338 337 335 333 332 330 328 326 324 321 317
198 190 198 202 199 200 196 197 200 198 252 331 346 349 349 351 349 347 346 345 344 343 341 341 340 339 338 339 339 338 338 338 337 336 334 333 332 331 329 327 325 322 320
186 193 197 197 189 189 194 196 212 234 292 336 346 346 347 346 344 343 343 342 341 341 340 339 338 337 338 339 338 338 338 337 336 334 333 333 333 331 330 328 325 322 321
197 199 195 182 183 186 190 200 220 254 306 331 338 340 340 341 340 340 341 340 340 338 338 338 337 338 339 338 339 338 337 336 335 334 333 333 333 331 329 327 324 324 324
175 185 183 180 181 183 187 201 239 270 308 326 331 334 336 336 337 339 340 338 338 337 337 338 339 339 339 339 339 337 336 336 335 334 334 333 332 330 329 327 327 325 323
171 170 173 173 176 179 190 215 250 281 311 323 328 329 332 335 337 338 337 338 338 338 338 339 339 340 340 340 338 337 337 336 335 335 333 333 332 331 330 328 327 326 324
159 166 162 165 173 179 191 212 254 292 313 321 324 329 333 335 335 336 336 337 337 339 339 340 340 340 340 339 339 338 336 336 335 332 333 333 331 331 330 329 327 326 325
160 166 167 164 174 184 192 220 275 311 318 324 330 332 333 334 334 334 334 337 339 339 340 340 340 340 340 340 339 338 338 337 336 334 333 333 334 333 331 330 328 327 327
215 207 171 165 156 155 164 321 325 327 330 331 332 333 334 333 334 336 339 338 339 340 340 340 340 340 341 340 340 340 340 338 337 337 337 336 336 335 334 332 333 333 334
84 115 125 129 121 112 64 2 343 341 338 336 335 335 337 338 339 338 338 340 340 340 341 342 341 340 341 341 341 341 341 340 339 340 340 339 337 337 337 337 340 338 336
62 91 92 91 86 52 39 11 354 346 340 341 341 342 341 340 339 339 339 341 341 341 342 341 342 342 342 343 342 342 341 339 340 340 340 340 340 339 343 343 342 342 336
69 70 69 69 68 59 31 6 353 345 345 345 344 343 342 341 341 341 342 342 342 342 341 341 343 344 344 344 344 343 342 341 340 341 341 342 343 345 341 343 347 346 294
56 56 60 55 43 28 12 0 352 352 350 347 344 343 343 343 344 343 343 343 343 341 341 341 342 344 346 346 344 344 344 343 343 343 344 346 346 345 345 349 321 294 322
59 49 49 38 23 20 14 3 358 354 349 346 345 345 346 347 346 345 345 343 343 342 341 342 342 342 344 345 345 344 345 346 345 347 348 349 350 352 357 296 300 353 342
47 46 40 29 17 10 4 4 359 355 352 349 348 348 348 348 347 347 346 344 343 343 343 342 342 342 344 345 346 346 347 347 349 349 351 351 354 4 296 1 331 299 292
56 49 39 28 20 14 10 6 1 358 353 352 351 351 350 348 346 347 346 345 347 346 344 344 344 343 343 345 346 347 348 349 349 350 352 355 2 345 10 335 301 296 295
56 41 36 29 21 17 11 6 1 359 357 353 352 351 348 347 346 345 345 350 349 349 348 347 346 346 345 346 348 348 350 350 352 354 358 344 317 8 324 295 296 296 296